Weather History for Newark, NJ

Change the Weather History Date:

Friday, June 8, 2012

  Actual Average Record
Temperature  
Mean Temperature 72 °F 70 °F  
Max Temperature 85 °F 79 °F 99 °F (2011)
Min Temperature 59 °F 61 °F 44 °F (1932)
Degree Days  
Heating Degree Days 0 1  
Month to date heating degree days 14 10  
Since 1 June heating degree days 14 10  
Since 1 July heating degree days 3707 4865  
Cooling Degree Days 7 6  
Month to date cooling degree days 21 42  
Year to date cooling degree days 154 118  
Since 1 June cooling degree days 21 42  
Growing Degree Days 22 (Base 50)    
Moisture  
Dew Point 52 °F    
Average Humidity 57    
Maximum Humidity 84    
Minimum Humidity 29    
Precipitation  
Precipitation T in 0.15 in 0.92 in (1947)
Month to date precipitation 1.79 1.15  
Year to date precipitation 14.83 20.04  
Snow  
Snow 0.00 in 0.00 in 0.00 in (2002)
Month to date snowfall 0.0 0.0  
Since 1 July snowfall 8.8 28.5  
Snow Depth 0.00 in    
Sea Level Pressure  
Sea Level Pressure 29.89 in    
Wind  
Wind Speed 7 mph (West)    
Max Wind Speed 24 mph    
Max Gust Speed 28 mph    
Visibility 10 miles    
Events Rain , Thunderstorm    
T = Trace of Precipitation, MM = Missing Value Source: NWS Daily Summary

Daily Weather History Graph

Daily Weather History Graph

Search for Another Location

Airport:

Trip Planner

Search our weather history database for the weather conditions in past years. The results will help you decide how hot, cold, wet, or windy it might be!

Date:

Astronomy

Jun. 08, 2012 Rise Set
Actual Time 5:25 AM EDT 8:26 PM EDT
Civil Twilight 4:52 AM EDT 8:59 PM EDT
Nautical Twilight 4:10 AM EDT 9:41 PM EDT
Astronomical Twilight 3:21 AM EDT 10:30 PM EDT
Moon 11:47 PM EDT (6/8) 10:03 AM EDT (6/8)
Length of Visible Light 16h 07m
Length of Day
15h 00m
Waning Gibbous, 77% of the Moon is Illuminated
Jun 8
Waning Gibbous
Jun 11
Last Quarter
Jun 19
New
Jun 26
First Quarter
Jul 3
Full

Hourly Weather History & Observations

Time (EDT) Temp. Dew Point Humidity Pressure Visibility Wind Dir Wind Speed Gust Speed Precip Events Conditions
12:51 AM 64.0 °F 55.0 °F 73% 29.94 in 10.0 mi SW 5.8 mph - N/A   Clear
1:51 AM 63.0 °F 54.0 °F 72% 29.94 in 10.0 mi West 4.6 mph - N/A   Partly Cloudy
2:51 AM 62.1 °F 54.0 °F 75% 29.93 in 10.0 mi West 4.6 mph - N/A   Clear
3:51 AM 61.0 °F 55.0 °F 81% 29.92 in 10.0 mi West 3.5 mph - N/A   Clear
4:51 AM 60.1 °F 54.0 °F 80% 29.92 in 10.0 mi West 3.5 mph - N/A   Clear
5:51 AM 60.8 °F 53.6 °F 77% 29.92 in 10.0 mi SW 3.5 mph - N/A   Scattered Clouds
6:51 AM 64.0 °F 55.0 °F 73% 29.93 in 10.0 mi Calm Calm - N/A   Scattered Clouds
7:51 AM 66.0 °F 55.0 °F 68% 29.94 in 10.0 mi West 5.8 mph - N/A   Scattered Clouds
8:51 AM 71.6 °F 53.6 °F 53% 29.94 in 10.0 mi Calm Calm - N/A   Scattered Clouds
9:51 AM 75.0 °F 52.0 °F 44% 29.94 in 10.0 mi WNW 5.8 mph - N/A   Scattered Clouds
10:51 AM 78.1 °F 51.1 °F 39% 29.93 in 10.0 mi North 3.5 mph - N/A   Scattered Clouds
11:51 AM 80.1 °F 51.1 °F 36% 29.91 in 10.0 mi West 10.4 mph - N/A   Scattered Clouds
12:51 PM 80.1 °F 48.9 °F 34% 29.90 in 10.0 mi WSW 4.6 mph - N/A   Mostly Cloudy
1:51 PM 82.0 °F 48.0 °F 30% 29.88 in 10.0 mi West 16.1 mph 23.0 mph N/A   Mostly Cloudy
2:51 PM 81.0 °F 50.0 °F 34% 29.86 in 10.0 mi WNW 12.7 mph - N/A   Mostly Cloudy
3:51 PM 82.0 °F 50.0 °F 33% 29.85 in 10.0 mi WSW 9.2 mph 18.4 mph N/A   Mostly Cloudy
4:51 PM 84.0 °F 48.9 °F 29% 29.83 in 10.0 mi West 10.4 mph - N/A   Mostly Cloudy
5:51 PM 84.0 °F 48.0 °F 28% 29.82 in 10.0 mi WSW 15.0 mph 20.7 mph N/A   Mostly Cloudy
6:51 PM 81.0 °F 48.0 °F 31% 29.82 in 10.0 mi West 18.4 mph - N/A   Mostly Cloudy
7:12 PM 80.6 °F 48.2 °F 32% 29.84 in 7.0 mi Variable 6.9 mph - 0.00 in Rain , Thunderstorm Light Thunderstorms and Rain
7:30 PM 78.8 °F 50.0 °F 36% 29.83 in 10.0 mi NNW 5.8 mph - 0.00 in   Mostly Cloudy
7:51 PM 79.0 °F 50.0 °F 36% 29.83 in 10.0 mi NW 3.5 mph - 0.00 in   Mostly Cloudy
8:51 PM 77.0 °F 51.1 °F 40% 29.83 in 10.0 mi WSW 4.6 mph - N/A   Mostly Cloudy
9:51 PM 75.9 °F 53.1 °F 45% 29.85 in 10.0 mi WSW 9.2 mph - N/A   Scattered Clouds
10:51 PM 73.9 °F 53.1 °F 48% 29.86 in 10.0 mi WSW 8.1 mph - N/A   Mostly Cloudy
11:51 PM 73.0 °F 53.1 °F 49% 29.86 in 10.0 mi West 8.1 mph - N/A   Mostly Cloudy